Weather History for Valdosta Regional, GA

Change the Weather History Date:

Tuesday, February 12, 2013

  Actual Average Record
Temperature  
Mean Temperature 68 °F 54 °F  
Max Temperature 74 °F 66 °F 50 °F (2014)
Min Temperature 62 °F 41 °F 40 °F (2014)
Degree Days  
Heating Degree Days 0 12  
Month to date heating degree days 84 153  
Since 1 July heating degree days 713 1222  
Cooling Degree Days 2    
Growing Degree Days 18 (Base 50)    
Moisture  
Dew Point 62 °F    
Average Humidity 85    
Maximum Humidity 90    
Minimum Humidity 79    
Precipitation  
Precipitation 0.24 in - 0.69 in (2014)
Month to date precipitation 0.49  
Year to date precipitation 1.25  
Sea Level Pressure  
Sea Level Pressure 30.00 in    
Wind  
Wind Speed 5 mph (East)    
Max Wind Speed 17 mph    
Max Gust Speed 26 mph    
Visibility 7 miles    
Events Rain    
T = Trace of Precipitation, MM = Missing Value Source: NWS Daily Summary

Daily Weather History Graph

Daily Weather History Graph

Search for Another Location

Airport:

Trip Planner

Search our weather history database for the weather conditions in past years. The results will help you decide how hot, cold, wet, or windy it might be!

Date:

Astronomy

Feb. 12, 2013 Rise Set
Actual Time 7:16 AM EST 6:18 PM EST
Civil Twilight 6:51 AM EST 6:43 PM EST
Nautical Twilight 6:23 AM EST 7:11 PM EST
Astronomical Twilight 5:54 AM EST 7:40 PM EST
Moon 8:27 AM EST (2/12) 9:01 PM EST (2/12)
Length of Visible Light 11h 52m
Length of Day
11h 02m
Waxing Crescent, 7% of the Moon is Illuminated
Feb 12
Waxing Crescent
Feb 17
First Quarter
Feb 25
Full
Mar 4
Last Quarter
Mar 11
New

Hourly Weather History & Observations

Time (EST) Temp. Dew Point Humidity Pressure Visibility Wind Dir Wind Speed Gust Speed Precip Events Conditions
12:53 AM 64.0 °F 60.1 °F 87% 30.11 in 4.0 mi NNE 8.1 mph - 0.05 in Rain Rain
1:12 AM 64.4 °F 60.8 °F 88% 30.08 in 4.0 mi NE 8.1 mph - 0.01 in Rain Light Rain
1:42 AM 62.6 °F 59.0 °F 88% 30.08 in 6.0 mi NNE 6.9 mph - 0.02 in Rain Light Rain
1:53 AM 63.0 °F 59.0 °F 87% 30.09 in 9.0 mi NE 9.2 mph - 0.02 in Rain Light Rain
2:09 AM 62.6 °F 59.0 °F 88% 30.06 in 10.0 mi ENE 4.6 mph - 0.00 in Rain Light Rain
2:49 AM 62.6 °F 59.0 °F 88% 30.05 in 10.0 mi ENE 4.6 mph - 0.00 in   Overcast
2:53 AM 63.0 °F 59.0 °F 87% 30.07 in 10.0 mi East 4.6 mph - 0.00 in   Overcast
3:00 AM 62.6 °F 59.0 °F 88% 30.05 in 10.0 mi Calm Calm - N/A   Overcast
3:17 AM 62.6 °F 59.0 °F 88% 30.05 in 10.0 mi East 3.5 mph - N/A   Overcast
3:33 AM 62.6 °F 59.0 °F 88% 30.04 in 10.0 mi East 5.8 mph - 0.00 in Rain Light Rain
3:53 AM 63.0 °F 57.9 °F 84% 30.06 in 10.0 mi Variable 3.5 mph - 0.00 in   Overcast
4:53 AM 62.1 °F 57.9 °F 86% 30.06 in 10.0 mi Calm Calm - 0.00 in   Overcast
5:38 AM 62.6 °F 59.0 °F 88% 30.05 in 4.0 mi Variable 3.5 mph - 0.00 in Rain Light Rain
5:53 AM 62.1 °F 57.9 °F 86% 30.06 in 5.0 mi Variable 3.5 mph - 0.00 in   Overcast
6:53 AM 62.1 °F 59.0 °F 90% 30.07 in 4.0 mi SE 3.5 mph - 0.00 in Rain Light Rain
7:08 AM 62.6 °F 59.0 °F 88% 30.05 in 2.5 mi Calm Calm - N/A   Overcast
7:27 AM 62.6 °F 59.0 °F 88% 30.06 in 1.2 mi Calm Calm - 0.01 in   Overcast
7:53 AM 62.1 °F 59.0 °F 90% 30.08 in 1.2 mi Calm Calm - 0.01 in Rain Light Rain
8:53 AM 63.0 °F 59.0 °F 87% 30.09 in 1.8 mi NNE 4.6 mph - N/A   Overcast
9:53 AM 63.0 °F 60.1 °F 90% 30.09 in 6.0 mi ENE 4.6 mph - 0.01 in Rain Light Rain
10:26 AM 64.4 °F 60.8 °F 88% 30.07 in 10.0 mi ENE 5.8 mph - 0.00 in   Overcast
10:53 AM 64.0 °F 60.1 °F 87% 30.08 in 5.0 mi NE 5.8 mph - 0.02 in Rain Rain
11:00 AM 64.4 °F 60.8 °F 88% 30.06 in 2.5 mi ENE 5.8 mph - 0.01 in Rain Rain
11:22 AM 64.4 °F 60.8 °F 88% 30.05 in 5.0 mi NE 5.8 mph - 0.03 in Rain Light Rain
11:41 AM 64.4 °F 60.8 °F 88% 30.05 in 5.0 mi Calm Calm - 0.04 in Rain Light Rain
11:53 AM 64.0 °F 60.1 °F 87% 30.07 in 5.0 mi NE 5.8 mph - 0.04 in Rain Light Rain
12:02 PM 64.4 °F 60.8 °F 88% 30.04 in 2.0 mi NE 4.6 mph - 0.02 in Rain Rain
12:32 PM 64.4 °F 60.8 °F 88% 30.03 in 4.0 mi ENE 4.6 mph - 0.04 in Rain Light Rain
12:53 PM 64.0 °F 60.1 °F 87% 30.04 in 4.0 mi NNE 4.6 mph - 0.05 in Rain Light Rain
1:02 PM 64.4 °F 60.8 °F 88% 30.01 in 9.0 mi NE 3.5 mph - 0.00 in Rain Light Rain
1:53 PM 64.9 °F 61.0 °F 87% 29.99 in 10.0 mi East 4.6 mph - 0.00 in   Overcast
2:53 PM 66.0 °F 62.1 °F 87% 29.97 in 10.0 mi Variable 3.5 mph - 0.00 in   Overcast
3:37 PM 68.0 °F 62.6 °F 83% 29.92 in 4.0 mi SE 3.5 mph - N/A   Haze
3:53 PM 68.0 °F 63.0 °F 84% 29.94 in 9.0 mi SE 5.8 mph - N/A   Overcast
4:53 PM 69.1 °F 64.0 °F 84% 29.93 in 10.0 mi ENE 3.5 mph - N/A   Overcast
5:53 PM 69.1 °F 64.0 °F 84% 29.91 in 10.0 mi Calm Calm - N/A   Overcast
6:09 PM 68.0 °F 64.4 °F 88% 29.87 in 9.0 mi East 4.6 mph - N/A   Overcast
6:23 PM 68.0 °F 64.4 °F 88% 29.87 in 2.5 mi Calm Calm - 0.03 in Rain Rain
6:26 PM 68.0 °F 64.4 °F 88% 29.87 in 3.0 mi Calm Calm - 0.03 in Rain Rain
6:53 PM 68.0 °F 64.0 °F 87% 29.89 in 8.0 mi Calm Calm - 0.04 in   Overcast
7:53 PM 68.0 °F 64.9 °F 90% 29.88 in 6.0 mi South 4.6 mph - N/A   Overcast
8:50 PM 73.4 °F 66.2 °F 78% 29.84 in 8.0 mi SSW 12.7 mph 24.2 mph N/A   Overcast
8:53 PM 73.0 °F 66.9 °F 81% 29.86 in 9.0 mi South 13.8 mph 24.2 mph N/A   Overcast
9:18 PM 73.4 °F 66.2 °F 78% 29.85 in 9.0 mi SSW 9.2 mph 26.5 mph N/A   Overcast
9:53 PM 73.9 °F 66.9 °F 79% 29.88 in 10.0 mi Variable 6.9 mph 17.3 mph N/A   Overcast
10:37 PM 73.4 °F 66.2 °F 78% 29.84 in 9.0 mi SSW 11.5 mph 20.7 mph N/A   Overcast
10:53 PM 73.9 °F 66.9 °F 79% 29.85 in 8.0 mi SSW 11.5 mph 20.7 mph N/A   Overcast
11:53 PM 73.9 °F 68.0 °F 82% 29.86 in 10.0 mi SSW 8.1 mph 17.3 mph N/A   Overcast